Paganella, Italy

4:39 AM CEST on August 26, 2016 (GMT +0200)
Paganella

Weather History for LIVP - February, 2013

Change the Weather History Date:

Thursday, February 7, 2013

  Actual Average Record
Temperature  
Mean Temperature 12 °F -  
Max Temperature 15 °F 28 °F 46 °F (2011)
Min Temperature 10 °F 19 °F 5 °F (2012)
Degree Days  
Heating Degree Days 52    
Moisture  
Dew Point 1 °F    
Average Humidity 56    
Maximum Humidity 86    
Minimum Humidity 28    
Precipitation  
Precipitation 0.00 in 0.04 in - ()
Sea Level Pressure  
Sea Level Pressure 29.39 in    
Wind  
Wind Speed 15 mph ()    
Max Wind Speed 29 mph    
Max Gust Speed 40 mph    
Visibility 7.5 miles    
Events      
Averages and records for this station are not official NWS values.
T = Trace of Precipitation, MM = Missing Value Source: Averaged Metar Reports

Daily Weather History Graph

Daily Weather History Graph

Search for Another Location

Airport or City:

Trip Planner

Search our weather history database for the weather conditions in past years. The results will help you decide how hot, cold, wet, or windy it might be!

Date:

Astronomy

Feb. 07, 2013 Rise Set
Actual Time 7:30 AM CET 5:29 PM CET
Civil Twilight 6:59 AM CET 6:01 PM CET
Nautical Twilight 6:23 AM CET 6:36 PM CET
Astronomical Twilight 5:48 AM CET 7:11 PM CET
Moon 5:01 AM CET (2/7) 2:30 PM CET (2/7)
Length of Visible Light 11h 02m
Length of Day
9h 59m
Waning Crescent, 11% of the Moon is Illuminated
Feb 7
Waning Crescent
Feb 10
New
Feb 17
First Quarter
Feb 25
Full
Mar 4
Last Quarter

Hourly Weather History & Observations

Time (CET) Temp. Windchill Dew Point Humidity Pressure Visibility Wind Dir Wind Speed Gust Speed Precip Events Conditions
12:55 AM 15.8 °F 5.1 °F 8.6 °F 73% 29.27 in - NNE 8.1 mph - N/A   Clear
1:00 AM 15 °F - 8 °F 64%  in 9 mi NNE 8.1 mph - -   Scattered Clouds
1:55 AM 15.8 °F 3.4 °F 8.6 °F 73% 29.27 in - North 10.4 mph - N/A   Clear
2:55 AM 14.0 °F -0.2 °F 10.4 °F 86% 29.27 in - North 12.7 mph - N/A   Clear
3:55 AM 14.0 °F -0.8 °F 8.6 °F 79% 29.30 in - North 13.8 mph - N/A   Clear
4:00 AM 14 °F - 9 °F 73%  in 19 mi North 13.8 mph - -   Clear
4:55 AM 14.0 °F -0.2 °F 8.6 °F 79% 29.30 in - North 12.7 mph - N/A   Clear
5:55 AM 14.0 °F -2.5 °F 6.8 °F 73% 29.30 in 6.2 mi North 17.3 mph - N/A   Unknown
6:55 AM 12.2 °F -5.3 °F 3.2 °F 67% 29.33 in 6.2 mi North 18.4 mph - N/A   Partly Cloudy
7:00 AM 13 °F - 4 °F 54%  in 31 mi North 18.4 mph - -   Scattered Clouds
7:55 AM 14.0 °F -2.5 °F 3.2 °F 62% 29.36 in 6.2 mi North 17.3 mph - N/A   Partly Cloudy
8:55 AM 14.0 °F -2.5 °F 1.4 °F 57% 29.36 in 6.2 mi North 17.3 mph - N/A   Scattered Clouds
9:55 AM 14.0 °F -4.3 °F 1.4 °F 57% 29.39 in 6.2 mi North 21.9 mph - N/A   Partly Cloudy
10:00 AM 14 °F - 2 °F 43%  in 44 mi North 21.9 mph - -   Scattered Clouds
10:55 AM 14.0 °F -3.0 °F 1.4 °F 57% 29.39 in - North 18.4 mph 31.1 mph N/A   Clear
11:55 AM 14.0 °F -2.0 °F 5.0 °F 67% 29.42 in - NNE 16.1 mph 28.8 mph N/A   Clear
12:55 PM 15.8 °F 0.9 °F 5.0 °F 62% 29.42 in 6.2 mi North 15.0 mph 26.5 mph N/A   Partly Cloudy
1:00 PM 15 °F - 4 °F 49%  in 47 mi North 15.0 mph - -   Scattered Clouds
1:55 PM 14.0 °F -1.4 °F 5.0 °F 67% 29.42 in 6.2 mi NNE 15.0 mph - N/A   Partly Cloudy
2:55 PM 15.8 °F 1.4 °F 3.2 °F 58% 29.42 in 6.2 mi North 13.8 mph 27.6 mph N/A   Partly Cloudy
3:55 PM 15.8 °F -2.3 °F -2.2 °F 45% 29.44 in 6.2 mi North 23.0 mph - N/A   Partly Cloudy
4:00 PM 15 °F - -1 °F 32%  in 31 mi North 23.0 mph - -   Scattered Clouds
4:55 PM 14.0 °F -5.5 °F -5.8 °F 41% 29.44 in 6.2 mi North 25.3 mph 36.8 mph N/A   Partly Cloudy
5:55 PM 12.2 °F -8.6 °F -5.8 °F 45% 29.44 in - North 27.6 mph 39.1 mph N/A   Clear
6:55 PM 12.2 °F -8.9 °F -5.8 °F 45% 29.44 in - North 28.8 mph 40.3 mph N/A   Clear
7:00 PM 12 °F - -6 °F 28%  in 44 mi North 28.8 mph - -  
7:55 PM 10.4 °F -11.0 °F -5.8 °F 48% 29.47 in - North 27.6 mph 39.1 mph N/A   Clear
8:55 PM 10.4 °F -9.9 °F -4.0 °F 52% 29.47 in - North 24.2 mph - N/A   Clear
9:55 PM 10.4 °F -9.1 °F -5.8 °F 48% 29.47 in - North 21.9 mph - N/A   Clear
10:00 PM 10 °F - -5 °F 34%  in 44 mi North 21.9 mph - -  
10:55 PM 10.4 °F -10.3 °F -7.6 °F 44% 29.47 in - North 25.3 mph - N/A   Clear
11:55 PM 10.4 °F -9.5 °F -7.6 °F 44% 29.47 in - North 23.0 mph - N/A   Clear